www.pogodaiklimat.ru

Погода и климат >> Архив погоды >> ОАЭ >> Дубай


АРХИВ ПОГОДЫ в Дубае

Время (UTC), дата Ветер
(напр.,м/с)
 
Видим.   Явления Облачность Т
(С)
Тd
(С)
f
(%)
Тe
(С)
Тes
(С)
Комфортность P
(гПа)
Po
(гПа)
Тmin
(С)
Tmax
(С)
R
(мм)
R24
(мм)
S
(см)
12 12.07 СЗ 4 10 км ясно +38.6 +25.6 48 +53 +59 опасность
перегрева
994.6 994.1
15 12.07 С 4 10 км ясно +36.0 +26.7 59 +53 +53 опасность
перегрева
995.0 994.5
18 12.07 нст 1 10 км ясно +35.3 +26.3 60 +52 +52 опасность
перегрева
996.9 996.4 +40.9
21 12.07 ЮЗ 2 10 км ясно +34.9 +25.9 60 +51 +51 опасность
перегрева
996.1 995.6
00 13.07 СВ 3 8000 м мгла ясно +34.9 +25.1 57 +49 +49 опасность
перегрева
995.8 995.3
03 13.07 В 3 7000 м мгла ясно +34.0 +25.1 60 +48 +50 опасность
перегрева
997.1 996.6
06 13.07 ЮВ 4 10 км 3/0
[Ci fib]
+38.3 +21.4 38 +46 +57 опасность
перегрева
997.7 997.2 +33.7
09 13.07 СЗ 5 8000 м пыль ясно +40.7 +25.3 42 +54 +65 опасность
перегрева
996.7 996.2
12 13.07 С 6 8000 м пыль ясно +37.4 +28.0 59 +58 +61 опасность
перегрева
995.5 995.0
15 13.07 С 4 10 км ясно +35.8 +27.0 61 +54 +54 опасность
перегрева
995.8 995.3
18 13.07 СВ 4 10 км ясно +36.5 +22.6 45 +46 +46 опасность
перегрева
997.7 997.2 +42.7
21 13.07 СВ 2 10 км 1/0
[Ac trans]
+37.8 +17.7 31 +41 +41 опасность
перегрева
996.9 996.4
00 14.07 ЮВ 3 10 км ясно +36.1 +22.2 45 +45 +45 опасность
перегрева
996.2 995.7
03 14.07 ЮЗ 3 8000 м пыль ясно +34.2 +22.2 50 +43 +45 опасность
перегрева
998.3 997.8
06 14.07 ЮЗ 4 5000 м пыль ясно +38.0 +20.3 36 +44 +54 опасность
перегрева
998.9 998.4 +34.1
09 14.07 СЗ 5 4500 м пыль 3/0
[Ac trans]
+40.3 +23.7 39 +51 +60 опасность
перегрева
997.3 996.8
12 14.07 СЗ 7 5000 м пыль ясно +36.9 +29.4 66 +62 +64 опасность
перегрева
996.2 995.7
15 14.07 З 5 8000 м пыль ясно +36.6 +24.4 50 +49 +49 опасность
перегрева
995.9 995.4
18 14.07 С 3 10 км ясно +34.9 +26.5 62 +52 +52 опасность
перегрева
997.6 997.1 +41.5
21 14.07 ЮЗ 3 10 км ясно +33.5 +27.7 72 +54 +54 опасность
перегрева
996.3 995.8
00 15.07 Ю 4 7000 м мгла ясно +33.2 +28.1 75 +54 +54 опасность
перегрева
995.7 995.2
03 15.07 Ю 4 3000 м мгла 3/0
[Ci fib]
+32.1 +28.5 81 +54 +55 опасность
перегрева
996.7 996.2
06 15.07 ЮЗ 5 9000 м пыль ясно +36.1 +26.5 58 +53 +62 опасность
перегрева
996.9 996.4 +31.5
09 15.07 З 6 10 км ясно +38.1 +23.3 43 +48 +56 опасность
перегрева
996.0 995.5
12 15.07 З 6 10 км ясно +38.3 +23.5 43 +49 +53 опасность
перегрева
994.8 994.3
15 15.07 З 5 10 км ясно +35.0 +26.6 62 +52 +52 опасность
перегрева
994.5 994.0
18 15.07 З 4 10 км ясно +33.7 +27.4 70 +53 +53 опасность
перегрева
995.6 995.1 +38.7
21 15.07 Ю 4 10 км 3/0
[Ac trans]
+32.8 +26.8 71 +50 +50 опасность
перегрева
994.8 994.3
00 16.07 Ю 4 10 км 4/0
[Ac trans]
+32.0 +25.3 68 +46 +46 опасность
перегрева
994.4 993.9
03 16.07 ЮЗ 4 10 км ясно +31.5 +24.5 66 +44 +45 опасность
перегрева
995.5 994.9
06 16.07 ЮЗ 4 10 км ясно +36.6 +24.4 50 +49 +59 опасность
перегрева
996.3 995.8 +31.3
09 16.07 З 6 10 км ясно +38.9 +24.0 43 +50 +58 опасность
перегрева
995.0 994.5
12 16.07 З 6 10 км 1/0
[Ci fib]
+37.9 +25.3 49 +52 +55 опасность
перегрева
993.9 993.4
15 16.07 З 5 10 км ясно +35.5 +26.5 60 +52 +52 опасность
перегрева
994.6 994.1
18 16.07 ЮЗ 3 10 км ясно +34.6 +26.7 64 +52 +52 опасность
перегрева
996.2 995.7 +39.2
21 16.07 Ю 2 10 км ясно +33.4 +26.3 66 +50 +50 опасность
перегрева
995.9 995.4
00 17.07 Ю 3 10 км ясно +32.3 +26.0 69 +48 +48 опасность
перегрева
995.5 995.0
03 17.07 Ю 2 10 км 4/0
[Ac trans]
+31.8 +24.3 65 +44 +46 опасность
перегрева
996.9 996.3
06 17.07 Ю 3 10 км 1/0
[Ac trans]
+36.7 +20.4 39 +43 +57 опасность
перегрева
997.5 997.0 +31.6
09 17.07 ЮЗ 3 10 км 4/0
[Ac trans]
+41.4 +16.0 23 +43 +58 опасность
перегрева
996.4 995.9
12 17.07 С 6 10 км 3/0
[Ac trans]
+36.9 +25.4 52 +51 +54 опасность
перегрева
995.4 994.9
15 17.07 СВ 4 10 км 3/0
[Ac trans]
+36.5 +26.6 57 +53 +53 опасность
перегрева
995.7 995.2
18 17.07 СЗ 4 10 км ясно +36.2 +26.6 58 +53 +53 опасность
перегрева
996.9 996.4 +43.1
21 17.07 СЗ 4 10 км ясно +34.1 +28.2 71 +55 +55 опасность
перегрева
996.5 996.0
00 18.07 С 3 10 км 4/4 540 м
[Sc]
+33.2 +28.5 76 +55 +55 опасность
перегрева
996.2 995.7
03 18.07 В 3 8000 м мгла 3/0
[Ci fib]
+33.7 +27.4 70 +53 +55 опасность
перегрева
997.4 996.9
06 18.07 В 3 10 км 3/1 900 м
[Sc Ac trans]
+36.2 +26.6 58 +53 +64 опасность
перегрева
998.3 997.8 +33.0
09 18.07 СЗ 6 8000 м пыль 5/0
[Ac trans Ci fib]
+39.1 +27.1 51 +57 +63 опасность
перегрева
996.8 996.3
12 18.07 С 7 8000 м пыль 3/0
[Ac trans]
+38.0 +27.0 54 +56 +58 опасность
перегрева
995.6 995.1
15 18.07 СЗ 4 8000 м мгла 3/0
[Ac trans]
+35.7 +28.3 66 +57 +57 опасность
перегрева
995.7 995.2
18 18.07 С 4 9000 м мгла 1/0
[Ac trans]
+34.6 +28.5 71 +57 +57 опасность
перегрева
997.0 996.5 +41.1
21 18.07 СВ 3 9000 м мгла 1/0
[Ac trans]
+34.6 +28.5 71 +57 +57 опасность
перегрева
996.7 996.2
00 19.07 СВ 3 10 км ясно +34.5 +26.6 64 +52 +52 опасность
перегрева
996.1 995.6
03 19.07 В 3 8000 м пыль 3/0
[Ac trans]
+33.2 +25.7 65 +48 +50 опасность
перегрева
997.6 997.1
06 19.07 В 6 8000 м пыль 3/0
[Ci fib]
+36.2 +24.7 52 +49 +55 опасность
перегрева
997.6 997.1 +33.1
09 19.07 СВ 4 10 км 3/0
[Ac trans]
+40.6 +23.1 37 +50 +63 опасность
перегрева
996.4 995.9

 

Местоположение метеостанции Дубай (ОАЭ): широта 25.25 долгота 55.33 высота над уровнем моря 5 м.

В архиве по умолчанию представлена погода в Дубае за последнюю неделю. Архивные данные за месяц целиком и за предыдущие месяцы, начиная с января 2011 года, Вы можете получить, выбрав интересующий диапазон дат из раскрывающегося списка и нажав кнопку "Ввод!".


*Определитесь, кто Вы:
робот инопланетянин человек

Внимание! Время в таблицах - всемирное. Для получения местного времени необходимо прибавить поправку, которая равна 4 ч.

Смотрите также архив погоды в соседних городах и на ближайших метеорологических станциях:

Погода в Шардже (ОАЭ) (21 км)
Погода в Аль-Мактум аэропорту (ОАЭ) (43 км)
Погода в Рай-эль-Хайма аэропорту (ОАЭ) (73 км)
Погода на Острове Абу-Муса (Иран) (82 км)
Погода в Дибе (Оман) (101 км)
Погода в Фуджейре (ОАЭ) (102 км)
Погода на Острове Сирри (Иран) (107 км)
Погода в Эль-Айне (ОАЭ) (112 км)
Погода в Абу-Даби (ОАЭ) (114 км)
Погода в Эль-Бурайми (Оман) (122 км)

Пояснения к столбцам:

Ветер - указаны скорость ветра в м/с - средняя за 10 мин, порывы в срок и между сроками (в фигурных скобках) и направление, откуда дует ветер: С - северный, СВ - северо-восточный, В - восточный, ЮВ - юго-восточный, Ю - южный, ЮЗ - юго-западный, З - западный, СЗ - северо-западный.
Видимость - горизонтальная дальность видимости в метрах или километрах. При видимости от 1 до 10 км при отсутствии осадков обычно наблюдается дымка, при ухудшении видимости до 1 км и менее - туман. В сухую погоду видимость может ухудшаться дымом, пылью или мглою.
Явления - указаны атмосферные явления, наблюдавшиеся в срок или в последний час перед сроком; фигурными скобками обозначены явления, наблюдавшиеся между сроками (за 1-3 часа до срока); квадратными скобками обозначены град или гололедные отложения с указанием их диаметра в мм.
Облачность - указаны через наклонную черту общая и нижняя облачность в баллах и высота нижней границы облаков в метрах; квадратными скобками обозначены формы облаков: Ci - перистые, Cs - перисто-слоистые, Cc - перисто-кучевые, Ac - высококучевые, As - высокослоистые, Sc - слоисто-кучевые, Ns - слоисто-дождевые, Cu - кучевые, Cb - кучево-дождевые. Подробнее классификацию облаков см. в Атласе облаков (PDF).
T - Температура воздуха - температура, измеренная на высоте 2 м над землей.
Td - Температура точки росы - температура, при понижении до которой содержащийся в воздухе водяной пар достигнет насыщения.
f - Относительная влажность воздуха - влажноcть воздуха, измеренная на высоте 2 м над землей.
Te - Эффективная температура - температура, которую ощущает одетый по сезону человек в тени. Характеристика душности погоды. При расчете учитывается влияние влажности воздуха и скорости ветра на теплоощущения человека.
Tes - Эффективная температура на солнце - температура, которую ощущает человек, с поправкой на солнечный нагрев. Характеристика знойности погоды. Зависит от высоты солнца над горизонтом, облачности и скорости ветра. Ночью, в пасмурную погоду, а также при ветре 12 м/с и более поправка равна нулю.
P - Атмосферное давление - приведенное к уровню моря атмосферное давление.
Po - Атмосферное давление - измеренное на уровне метеостанции атмосферное давление.
Tmin - Минимальная температура - минимум температуры воздуха на высоте 2 м над землей.
Tmax - Максимальная температура - максимум температуры воздуха на высоте 2 м над землей.
R - Количество осадков - Количество выпавших осадков за период времени, мм. При наведении курсора мыши на число - период времени, за который выпало указанное количество осадков.
R24 - Количество осадков - Количество выпавших осадков за 24 часа, мм.
S - Снежный покров - Высота снежного покрова, см. При наведении курсора мыши на число - состояние снежного покрова и степень покрытия местности в баллах.